Time,TemperatureF,DewpointF,PressureIn,WindDirection,WindDirectionDegrees,WindSpeedMPH,WindSpeedGustMPH,Humidity,HourlyPrecipIn,Conditions,Clouds,dailyrainin,SoftwareType,DateUTC
2013-02-03 00:03:00,34.0,27.0,29.92,South,180,11.0,18.0,76,0.00,,,0.00,,2013-02-03 05:03:00,
2013-02-03 00:12:00,34.0,27.0,29.92,South,180,11.0,18.0,76,0.00,,,0.00,,2013-02-03 05:12:00,
2013-02-03 00:22:00,34.0,27.0,29.92,SSW,199,8.0,19.0,76,0.00,,,0.00,,2013-02-03 05:22:00,
2013-02-03 00:32:00,34.0,27.0,29.91,SSE,149,7.0,15.0,74,0.00,,,0.00,,2013-02-03 05:32:00,
2013-02-03 00:42:00,34.0,27.0,29.91,SSE,149,7.0,15.0,74,0.00,,,0.00,,2013-02-03 05:42:00,
2013-02-03 00:52:00,34.0,26.0,29.91,SSE,150,8.0,18.0,73,0.00,,,0.00,,2013-02-03 05:52:00,
2013-02-03 01:02:00,34.0,25.0,29.90,SE,144,6.0,17.0,70,0.00,,,0.00,,2013-02-03 06:02:00,
2013-02-03 01:11:00,34.0,25.0,29.90,SE,144,6.0,17.0,70,0.00,,,0.00,,2013-02-03 06:11:00,
2013-02-03 01:21:00,34.0,26.0,29.91,NNE,21,7.0,24.0,71,0.00,,,0.00,,2013-02-03 06:21:00,
2013-02-03 01:32:00,34.0,26.0,29.90,ESE,118,4.0,18.0,72,0.00,,,0.00,,2013-02-03 06:32:00,
2013-02-03 01:42:00,34.0,26.0,29.90,ESE,118,4.0,18.0,72,0.00,,,0.00,,2013-02-03 06:42:00,
2013-02-03 01:52:00,34.0,25.0,29.90,SSW,206,7.0,15.0,70,0.00,,,0.00,,2013-02-03 06:52:00,
2013-02-03 02:02:00,34.0,25.0,29.89,SSW,203,13.0,23.0,70,0.00,,,0.00,,2013-02-03 07:02:00,
2013-02-03 02:11:00,34.0,25.0,29.89,SSW,203,13.0,23.0,70,0.00,,,0.00,,2013-02-03 07:11:00,
2013-02-03 02:21:00,34.0,25.0,29.88,South,180,10.0,24.0,70,0.00,,,0.00,,2013-02-03 07:21:00,
2013-02-03 02:32:00,33.0,24.0,29.87,East,100,8.0,13.0,70,0.00,,,0.00,,2013-02-03 07:32:00,
2013-02-03 02:42:00,33.0,24.0,29.87,East,100,8.0,13.0,70,0.00,,,0.00,,2013-02-03 07:42:00,
2013-02-03 02:52:00,33.0,24.0,29.88,SSE,148,6.0,21.0,69,0.00,,,0.00,,2013-02-03 07:52:00,
2013-02-03 03:02:00,33.0,24.0,29.88,South,185,11.0,20.0,70,0.00,,,0.00,,2013-02-03 08:02:00,
2013-02-03 03:11:00,33.0,24.0,29.88,South,185,11.0,20.0,70,0.00,,,0.00,,2013-02-03 08:11:00,
2013-02-03 03:22:00,33.0,24.0,29.88,SSE,168,8.0,28.0,69,0.00,,,0.00,,2013-02-03 08:22:00,
2013-02-03 03:32:00,32.0,24.0,29.88,SW,225,9.0,24.0,72,0.00,,,0.00,,2013-02-03 08:32:00,
2013-02-03 03:41:00,32.0,24.0,29.88,SW,225,9.0,24.0,72,0.00,,,0.00,,2013-02-03 08:41:00,
2013-02-03 03:52:00,32.0,23.0,29.87,SE,137,10.0,19.0,69,0.00,,,0.00,,2013-02-03 08:52:00,
2013-02-03 04:03:00,31.0,20.0,29.85,SSE,149,6.0,19.0,64,0.00,,,0.00,,2013-02-03 09:03:00,
2013-02-03 04:11:00,31.0,20.0,29.85,SSE,149,6.0,19.0,64,0.00,,,0.00,,2013-02-03 09:11:00,
2013-02-03 04:21:00,30.0,19.0,29.83,SSE,155,9.0,24.0,63,0.00,,,0.00,,2013-02-03 09:21:00,
2013-02-03 04:32:00,30.0,19.0,29.82,South,174,15.0,28.0,64,0.00,,,0.00,,2013-02-03 09:32:00,
2013-02-03 04:42:00,30.0,19.0,29.82,South,174,15.0,28.0,64,0.00,,,0.00,,2013-02-03 09:42:00,
2013-02-03 04:52:00,30.0,19.0,29.85,SE,140,13.0,21.0,64,0.00,,,0.00,,2013-02-03 09:52:00,
2013-02-03 05:01:00,30.0,19.0,29.85,SSE,166,8.0,26.0,62,0.00,,,0.00,,2013-02-03 10:01:00,
2013-02-03 05:11:00,30.0,19.0,29.85,SSE,166,8.0,26.0,62,0.00,,,0.00,,2013-02-03 10:11:00,
2013-02-03 05:21:00,30.0,19.0,29.84,SSE,155,12.0,25.0,64,0.00,,,0.00,,2013-02-03 10:21:00,
2013-02-03 05:32:00,30.0,20.0,29.85,SSW,205,6.0,18.0,66,0.00,,,0.00,,2013-02-03 10:32:00,
2013-02-03 05:42:00,30.0,20.0,29.85,SSW,205,6.0,18.0,66,0.00,,,0.00,,2013-02-03 10:42:00,
2013-02-03 05:52:00,30.0,20.0,29.84,SW,227,5.0,30.0,66,0.00,,,0.00,,2013-02-03 10:52:00,
2013-02-03 06:02:00,30.0,20.0,29.85,SE,141,7.0,16.0,67,0.00,,,0.00,,2013-02-03 11:02:00,
2013-02-03 06:11:00,30.0,20.0,29.85,SE,141,7.0,16.0,67,0.00,,,0.00,,2013-02-03 11:11:00,
2013-02-03 06:22:00,30.0,20.0,29.86,SSE,157,7.0,21.0,67,0.00,,,0.00,,2013-02-03 11:22:00,
2013-02-03 06:32:00,30.0,20.0,29.86,SSE,154,8.0,15.0,67,0.00,,,0.00,,2013-02-03 11:32:00,
2013-02-03 06:42:00,30.0,20.0,29.86,SSE,154,8.0,15.0,67,0.00,,,0.00,,2013-02-03 11:42:00,
2013-02-03 06:52:00,31.0,21.0,29.85,ENE,61,3.0,21.0,65,0.00,,,0.00,,2013-02-03 11:52:00,
2013-02-03 07:02:00,31.0,21.0,29.85,South,171,8.0,17.0,67,0.00,,,0.00,,2013-02-03 12:02:00,
2013-02-03 07:12:00,31.0,21.0,29.85,South,171,8.0,17.0,67,0.00,,,0.00,,2013-02-03 12:12:00,
2013-02-03 07:22:00,31.0,21.0,29.85,South,180,10.0,16.0,67,0.00,,,0.00,,2013-02-03 12:22:00,
2013-02-03 07:32:00,31.0,21.0,29.85,SSE,155,7.0,18.0,67,0.00,,,0.00,,2013-02-03 12:32:00,
2013-02-03 07:42:00,31.0,21.0,29.85,SSE,155,7.0,18.0,67,0.00,,,0.00,,2013-02-03 12:42:00,
2013-02-03 07:53:00,32.0,22.0,29.84,SE,140,10.0,17.0,67,0.00,,,0.00,,2013-02-03 12:53:00,
2013-02-03 08:03:00,32.0,22.0,29.85,SW,220,6.0,21.0,67,0.00,,,0.00,,2013-02-03 13:03:00,
2013-02-03 08:11:00,32.0,22.0,29.85,SW,220,6.0,21.0,67,0.00,,,0.00,,2013-02-03 13:11:00,
2013-02-03 08:22:00,32.0,23.0,29.85,SSW,192,7.0,14.0,68,0.00,,,0.00,,2013-02-03 13:22:00,
2013-02-03 08:32:00,33.0,24.0,29.87,SSW,201,9.0,18.0,68,0.00,,,0.00,,2013-02-03 13:32:00,
2013-02-03 08:42:00,33.0,24.0,29.87,SSW,201,9.0,18.0,68,0.00,,,0.00,,2013-02-03 13:42:00,
2013-02-03 08:52:00,32.0,24.0,29.86,South,176,6.0,17.0,72,0.00,,,0.00,,2013-02-03 13:52:00,
2013-02-03 09:02:00,32.0,25.0,29.87,SSW,200,5.0,10.0,75,0.00,,,0.00,,2013-02-03 14:02:00,
2013-02-03 09:11:00,32.0,25.0,29.87,SSW,200,5.0,10.0,75,0.00,,,0.00,,2013-02-03 14:11:00,
2013-02-03 09:22:00,32.0,26.0,29.87,SSW,193,1.0,9.0,77,0.00,,,0.00,,2013-02-03 14:22:00,
2013-02-03 09:32:00,32.0,26.0,29.87,SW,219,2.0,6.0,79,0.00,,,0.00,,2013-02-03 14:32:00,
2013-02-03 09:42:00,32.0,26.0,29.87,SW,219,2.0,6.0,79,0.00,,,0.00,,2013-02-03 14:42:00,
2013-02-03 09:52:00,32.0,26.0,29.88,WSW,248,3.0,8.0,79,0.00,,,0.00,,2013-02-03 14:52:00,
2013-02-03 10:03:00,33.0,26.0,29.87,South,188,7.0,10.0,76,0.00,,,0.00,,2013-02-03 15:03:00,
2013-02-03 10:11:00,33.0,26.0,29.87,South,188,7.0,10.0,76,0.00,,,0.00,,2013-02-03 15:11:00,
2013-02-03 10:22:00,33.0,26.0,29.87,SW,214,2.0,9.0,75,0.00,,,0.00,,2013-02-03 15:22:00,
2013-02-03 10:33:00,33.0,26.0,29.86,SSW,199,3.0,10.0,76,0.01,,,0.01,,2013-02-03 15:33:00,
2013-02-03 10:42:00,33.0,26.0,29.86,SSW,199,3.0,10.0,76,0.01,,,0.01,,2013-02-03 15:42:00,
2013-02-03 10:51:00,33.0,27.0,29.86,SSW,211,1.0,10.0,77,0.01,,,0.01,,2013-02-03 15:51:00,
2013-02-03 11:03:00,32.0,26.0,29.87,SW,225,1.0,9.0,78,0.01,,,0.01,,2013-02-03 16:03:00,
2013-02-03 11:11:00,32.0,26.0,29.87,SW,225,1.0,9.0,78,0.01,,,0.01,,2013-02-03 16:11:00,
2013-02-03 11:22:00,32.0,26.0,29.87,SW,223,2.0,7.0,78,0.01,,,0.01,,2013-02-03 16:22:00,
2013-02-03 11:33:00,33.0,27.0,29.86,WSW,241,2.0,7.0,79,0.00,,,0.01,,2013-02-03 16:33:00,
2013-02-03 11:42:00,33.0,27.0,29.86,WSW,241,2.0,7.0,79,0.00,,,0.01,,2013-02-03 16:42:00,
2013-02-03 11:52:00,34.0,28.0,29.86,SW,230,2.0,9.0,77,0.00,,,0.01,,2013-02-03 16:52:00,
2013-02-03 12:03:00,35.0,27.0,29.85,South,176,3.0,13.0,71,0.01,,,0.02,,2013-02-03 17:03:00,
2013-02-03 12:11:00,35.0,27.0,29.85,South,176,3.0,13.0,71,0.01,,,0.02,,2013-02-03 17:11:00,
2013-02-03 12:22:00,36.0,26.0,29.85,SW,227,5.0,21.0,68,0.01,,,0.02,,2013-02-03 17:22:00,
2013-02-03 12:32:00,37.0,26.0,29.86,SSW,192,5.0,17.0,64,0.02,,,0.03,,2013-02-03 17:32:00,
2013-02-03 12:42:00,37.0,26.0,29.86,SSW,192,5.0,17.0,64,0.02,,,0.03,,2013-02-03 17:42:00,
2013-02-03 12:52:00,37.0,26.0,29.86,SSE,164,9.0,26.0,64,0.02,,,0.03,,2013-02-03 17:52:00,
2013-02-03 13:03:00,37.0,25.0,29.85,SSW,193,5.0,23.0,62,0.01,,,0.03,,2013-02-03 18:03:00,
2013-02-03 13:12:00,37.0,25.0,29.85,SSW,193,5.0,23.0,62,0.01,,,0.03,,2013-02-03 18:12:00,
2013-02-03 13:23:00,38.0,25.0,29.83,WSW,248,4.0,19.0,60,0.02,,,0.04,,2013-02-03 18:23:00,
2013-02-03 13:33:00,38.0,26.0,29.84,SSW,213,8.0,26.0,61,0.01,,,0.04,,2013-02-03 18:33:00,
2013-02-03 13:42:00,38.0,26.0,29.84,SSW,213,8.0,26.0,61,0.01,,,0.04,,2013-02-03 18:42:00,
2013-02-03 13:51:00,38.0,25.0,29.84,South,181,10.0,35.0,58,0.01,,,0.04,,2013-02-03 18:51:00,
2013-02-03 14:02:00,38.0,24.0,29.85,SSE,147,8.0,26.0,56,0.01,,,0.04,,2013-02-03 19:02:00,
2013-02-03 14:11:00,38.0,24.0,29.85,SSE,147,8.0,26.0,56,0.01,,,0.04,,2013-02-03 19:11:00,
2013-02-03 14:22:00,38.0,22.0,29.81,SSW,199,8.0,24.0,53,0.00,,,0.04,,2013-02-03 19:22:00,
2013-02-03 14:32:00,39.0,24.0,29.82,SSW,193,12.0,37.0,54,0.00,,,0.04,,2013-02-03 19:32:00,
2013-02-03 14:42:00,39.0,24.0,29.82,SSW,193,12.0,37.0,54,0.00,,,0.04,,2013-02-03 19:42:00,
2013-02-03 14:51:00,39.0,25.0,29.82,SSW,196,9.0,24.0,56,0.00,,,0.04,,2013-02-03 19:51:00,
2013-02-03 15:02:00,38.0,24.0,29.82,South,185,11.0,32.0,56,0.00,,,0.04,,2013-02-03 20:02:00,
2013-02-03 15:12:00,38.0,24.0,29.82,South,185,11.0,32.0,56,0.00,,,0.04,,2013-02-03 20:12:00,
2013-02-03 15:22:00,38.0,23.0,29.82,South,188,12.0,26.0,55,0.00,,,0.04,,2013-02-03 20:22:00,
2013-02-03 15:33:00,38.0,23.0,29.84,South,174,15.0,32.0,54,0.00,,,0.04,,2013-02-03 20:33:00,
2013-02-03 15:42:00,38.0,23.0,29.84,South,174,15.0,32.0,54,0.00,,,0.04,,2013-02-03 20:42:00,
2013-02-03 15:52:00,38.0,23.0,29.83,SSW,201,8.0,33.0,54,0.00,,,0.04,,2013-02-03 20:52:00,
2013-02-03 16:03:00,37.0,23.0,29.84,SSE,151,8.0,28.0,57,0.00,,,0.04,,2013-02-03 21:03:00,
2013-02-03 16:11:00,37.0,23.0,29.84,SSE,151,8.0,28.0,57,0.00,,,0.04,,2013-02-03 21:11:00,
2013-02-03 16:21:00,37.0,23.0,29.84,SSW,204,11.0,26.0,57,0.00,,,0.04,,2013-02-03 21:21:00,
2013-02-03 16:33:00,36.0,22.0,29.82,SSW,210,7.0,30.0,57,0.00,,,0.04,,2013-02-03 21:33:00,
2013-02-03 16:42:00,36.0,22.0,29.82,SSW,210,7.0,30.0,57,0.00,,,0.04,,2013-02-03 21:42:00,
2013-02-03 16:51:00,36.0,23.0,29.83,SW,216,9.0,27.0,58,0.00,,,0.04,,2013-02-03 21:51:00,
2013-02-03 17:02:00,35.0,23.0,29.84,South,170,10.0,31.0,61,0.00,,,0.04,,2013-02-03 22:02:00,
2013-02-03 17:11:00,35.0,23.0,29.84,South,170,10.0,31.0,61,0.00,,,0.04,,2013-02-03 22:11:00,
2013-02-03 17:21:00,35.0,23.0,29.83,SSE,157,12.0,32.0,61,0.00,,,0.04,,2013-02-03 22:21:00,
2013-02-03 17:32:00,34.0,21.0,29.85,SSE,166,9.0,36.0,59,0.00,,,0.04,,2013-02-03 22:32:00,
2013-02-03 17:42:00,34.0,21.0,29.85,SSE,166,9.0,36.0,59,0.00,,,0.04,,2013-02-03 22:42:00,
2013-02-03 17:51:00,34.0,21.0,29.85,SSE,164,8.0,25.0,59,0.00,,,0.04,,2013-02-03 22:51:00,
2013-02-03 18:02:00,34.0,22.0,29.85,SSW,210,8.0,29.0,60,0.00,,,0.04,,2013-02-03 23:02:00,
2013-02-03 18:12:00,34.0,22.0,29.85,SSW,210,8.0,29.0,60,0.00,,,0.04,,2013-02-03 23:12:00,
2013-02-03 18:22:00,34.0,21.0,29.85,SSE,164,12.0,32.0,58,0.00,,,0.04,,2013-02-03 23:22:00,
2013-02-03 18:32:00,34.0,21.0,29.86,SSW,193,11.0,27.0,59,0.00,,,0.04,,2013-02-03 23:32:00,
2013-02-03 18:42:00,34.0,21.0,29.86,SSW,193,11.0,27.0,59,0.00,,,0.04,,2013-02-03 23:42:00,
2013-02-03 18:52:00,34.0,22.0,29.86,SSW,194,11.0,23.0,60,0.00,,,0.04,,2013-02-03 23:52:00,
2013-02-03 19:02:00,34.0,22.0,29.88,SSW,192,14.0,27.0,60,0.00,,,0.04,,2013-02-04 00:02:00,
2013-02-03 19:11:00,34.0,22.0,29.88,SSW,192,14.0,27.0,60,0.00,,,0.04,,2013-02-04 00:11:00,
2013-02-03 19:22:00,34.0,22.0,29.90,SSW,199,9.0,27.0,61,0.00,,,0.04,,2013-02-04 00:22:00,
2013-02-03 19:32:00,33.0,21.0,29.88,SSW,194,10.0,28.0,62,0.00,,,0.04,,2013-02-04 00:32:00,
2013-02-03 19:42:00,33.0,21.0,29.88,SSW,194,10.0,28.0,62,0.00,,,0.04,,2013-02-04 00:42:00,
2013-02-03 19:51:00,33.0,22.0,29.87,SSW,194,9.0,31.0,63,0.00,,,0.04,,2013-02-04 00:51:00,
2013-02-03 20:01:00,32.0,20.0,29.87,SSE,149,14.0,28.0,62,0.00,,,0.04,,2013-02-04 01:01:00,
2013-02-03 20:11:00,32.0,20.0,29.87,SSE,149,14.0,28.0,62,0.00,,,0.04,,2013-02-04 01:11:00,
2013-02-03 20:21:00,32.0,21.0,29.89,South,179,12.0,23.0,63,0.00,,,0.04,,2013-02-04 01:21:00,
2013-02-03 20:32:00,32.0,20.0,29.90,SSW,194,8.0,32.0,62,0.00,,,0.04,,2013-02-04 01:32:00,
2013-02-03 20:42:00,32.0,20.0,29.90,SSW,194,8.0,32.0,62,0.00,,,0.04,,2013-02-04 01:42:00,
2013-02-03 20:52:00,32.0,20.0,29.88,SSW,201,12.0,43.0,61,0.00,,,0.04,,2013-02-04 01:52:00,
2013-02-03 21:02:00,31.0,19.0,29.89,SSW,204,9.0,33.0,61,0.00,,,0.04,,2013-02-04 02:02:00,
2013-02-03 21:11:00,31.0,19.0,29.89,SSW,204,9.0,33.0,61,0.00,,,0.04,,2013-02-04 02:11:00,
2013-02-03 21:21:00,31.0,19.0,29.89,SSW,194,11.0,24.0,61,0.00,,,0.04,,2013-02-04 02:21:00,
2013-02-03 21:32:00,30.0,18.0,29.90,SSE,166,12.0,24.0,61,0.00,,,0.04,,2013-02-04 02:32:00,
2013-02-03 21:42:00,30.0,18.0,29.90,SSE,166,12.0,24.0,61,0.00,,,0.04,,2013-02-04 02:42:00,
2013-02-03 21:52:00,30.0,18.0,29.91,South,169,13.0,34.0,61,0.00,,,0.04,,2013-02-04 02:52:00,
2013-02-03 22:02:00,30.0,19.0,29.91,SSW,202,8.0,28.0,62,0.00,,,0.04,,2013-02-04 03:02:00,
2013-02-03 22:11:00,30.0,19.0,29.91,SSE,163,7.0,22.0,62,0.00,,,0.04,,2013-02-04 03:11:00,
2013-02-03 22:21:00,30.0,19.0,29.91,SSE,163,7.0,22.0,62,0.00,,,0.04,,2013-02-04 03:21:00,
2013-02-03 22:32:00,29.0,18.0,29.93,ESE,119,9.0,26.0,62,0.00,,,0.04,,2013-02-04 03:32:00,
2013-02-03 22:42:00,29.0,18.0,29.93,ESE,119,9.0,26.0,62,0.00,,,0.04,,2013-02-04 03:42:00,
2013-02-03 22:51:00,29.0,17.0,29.94,SSW,212,7.0,20.0,61,0.00,,,0.04,,2013-02-04 03:51:00,
2013-02-03 23:01:00,29.0,17.0,29.95,SSW,201,4.0,10.0,61,0.00,,,0.04,,2013-02-04 04:01:00,
2013-02-03 23:11:00,29.0,17.0,29.95,SSW,201,4.0,10.0,61,0.00,,,0.04,,2013-02-04 04:11:00,
2013-02-03 23:21:00,29.0,16.0,29.94,South,170,4.0,16.0,58,0.00,,,0.04,,2013-02-04 04:21:00,
2013-02-03 23:32:00,28.0,16.0,29.95,South,180,1.0,9.0,59,0.00,,,0.04,,2013-02-04 04:32:00,
2013-02-03 23:42:00,28.0,16.0,29.95,South,180,1.0,9.0,59,0.00,,,0.04,,2013-02-04 04:42:00,
2013-02-03 23:52:00,28.0,15.0,29.95,South,176,0.0,4.0,58,0.00,,,0.04,,2013-02-04 04:52:00,